User: anonymous   Login
Location: Borealis Mine
(38.3824°N, 118.7610°W)
Time: 17:10:57
(UTC+00:00)
Language:

Cosmos 1666 - Orbit

View from above orbital plane
View from above orbital plane
View from above satellite
View from above satellite

Ground track
Ground track

The orbit data is extracted from the following two-line orbital elements,

1 15889U 85058A   20337.27829555  .00001405  00000-0  65167-4 0  9994
2 15889  82.4873 180.0546 0016546 348.9280  11.1588 15.19124597933693
Epoch (UTC): 02 December 2020 06:40:44
Eccentricity: 0.0016546
inclination: 82.4873°
perigee height: 497 km
apogee height: 520 km
right ascension of ascending node: 180.0546°
argument of perigee: 348.9280°
revolutions per day: 15.19124597
mean anomaly at epoch: 11.1588°
orbit number at epoch: 93369

The dashed part of the orbit path shows where the satellite is in the earth's shadow,  

DLR